K6POO-1 Weather Reports


time (UTC)temp
C
wind
direction
speed
KPH
gust
KPH
rain 1hr
cm
rain 24hr
cm
rain mn
cm
humidity
%
barometer
mb
20260503213128 16 211 17.7 20.9 0.00 0.00 0.00 67 1013.2
20260503212625 16 222 9.7 14.5 0.00 0.00 0.00 68 1013.3
20260503212123 16 271 8.0 16.1 0.00 0.00 0.00 68 1013.1
20260503211620 16 234 9.7 16.1 0.00 0.00 0.00 68 1013.2
20260503211115 16 260 4.8 14.5 0.00 0.00 0.00 69 1013.3
20260503210612 16 220 14.5 17.7 0.00 0.00 0.00 67 1013.3
20260503210109 16 334 11.3 17.7 0.00 0.00 0.00 66 1013.3
20260503205605 16 214 14.5 20.9 0.00 0.00 0.00 66 1013.2
20260503205101 16 253 3.2 22.5 0.00 0.00 0.00 66 1013.3
20260503204558 16 229 9.7 14.5 0.00 0.00 0.00 67 1013.0
20260503204055 16 279 9.7 19.3 0.00 0.00 0.00 66 1013.1
20260503203552 16 229 6.4 17.7 0.00 0.00 0.00 64 1013.1
20260503203049 16 255 4.8 17.7 0.00 0.00 0.00 65 1013.3
20260503202547 16 284 16.1 17.7 0.00 0.00 0.00 67 1013.4
20260503202045 16 256 6.4 17.7 0.00 0.00 0.00 66 1013.2
20260503201543 16 358 9.7 12.9 0.00 0.00 0.00 64 1013.3
20260503201040 16 332 6.4 9.7 0.00 0.00 0.00 65 1013.5
20260503200536 16 302 12.9 14.5 0.00 0.00 0.00 65 1013.3
20260503200033 16 98 0.0 8.0 0.00 0.00 0.00 67 1013.5
20260503195530 16 148 3.2 8.0 0.00 0.00 0.00 68 1013.4
20260503195027 15 138 3.2 4.8 0.00 0.00 0.00 69 1013.5
20260503194525 15 328 4.8 16.1 0.00 0.00 0.00 69 1013.6
20260503194024 15 40 11.3 14.5 0.00 0.00 0.00 68 1013.4
20260503193521 15 228 4.8 6.4 0.00 0.00 0.00 70 1013.6
20260503193016 15 283 12.9 22.5 0.00 0.00 0.00 69 1013.6
20260503192512 15 225 0.0 16.1 0.00 0.00 0.00 68 1013.6
20260503192008 15 43 3.2 16.1 0.00 0.00 0.00 70 1013.5
20260503191505 15 264 8.0 14.5 0.00 0.00 0.00 70 1013.8
20260503191002 15 290 4.8 14.5 0.00 0.00 0.00 72 1013.7
20260503190459 15 317 14.5 17.7 0.00 0.00 0.00 71 1013.6
20260503185956 15 198 4.8 6.4 0.00 0.00 0.00 71 1013.5
20260503185452 15 266 4.8 16.1 0.00 0.00 0.00 72 1013.6
20260503184952 15 328 6.4 20.9 0.00 0.00 0.00 70 1013.6
20260503184448 16 354 12.9 14.5 0.00 0.00 0.00 70 1013.7
20260503183945 15 300 1.6 8.0 0.00 0.00 0.00 73 1013.6
20260503183441 15 226 14.5 24.1 0.00 0.00 0.00 72 1013.6
20260503182938 15 262 9.7 14.5 0.00 0.00 0.00 71 1013.6
20260503182437 15 357 6.4 14.5 0.00 0.00 0.00 71 1013.4
20260503181934 15 15 6.4 9.7 0.00 0.00 0.00 72 1013.5
20260503181431 15 236 3.2 8.0 0.00 0.00 0.00 72 1013.7
20260503180927 15 309 4.8 6.4 0.00 0.00 0.00 72 1013.5
20260503180427 15 268 1.6 6.4 0.00 0.00 0.00 72 1013.5
20260503175923 15 330 6.4 14.5 0.00 0.00 0.00 72 1013.7
20260503175421 15 175 9.7 9.7 0.00 0.00 0.00 75 1013.2
20260503174916 15 338 11.3 11.3 0.00 0.00 0.00 75 1013.4
20260503174415 15 239 9.7 12.9 0.00 0.00 0.00 77 1013.4
20260503173914 14 265 4.8 19.3 0.00 0.00 0.00 76 1013.3
20260503173411 14 247 14.5 14.5 0.00 0.00 0.00 77 1013.4
20260503172908 14 273 9.7 9.7 0.00 0.00 0.00 78 1013.5
20260503172405 14 239 8.0 16.1 0.00 0.00 0.00 78 1013.6
20260503171901 14 261 6.4 16.1 0.00 0.00 0.00 80 1013.7
20260503171358 13 250 4.8 6.4 0.00 0.00 0.00 84 1013.5
20260503170856 13 30 4.8 11.3 0.00 0.00 0.00 85 1013.6
20260503170352 13 254 6.4 8.0 0.00 0.00 0.00 85 1013.8
20260503150744 12 151 3.2 4.8 0.00 0.00 0.00 83 1012.8
20260503150240 12 141 0.0 3.2 0.00 0.00 0.00 83 1012.9
20260503140204 12 224 0.0 3.2 0.00 0.00 0.00 85 1012.0
20260503131134 12 163 4.8 8.0 0.00 0.00 0.00 85 1011.5
20260503130632 12 170 1.6 6.4 0.00 0.00 0.00 85 1011.3
20260503130129 12 180 3.2 4.8 0.00 0.00 0.00 85 1011.4
20260503110516 12 321 1.6 3.2 0.00 0.00 0.00 86 1011.4
20260503090409 12 282 6.4 9.7 0.00 0.00 0.00 84 1011.8
20260503081335 12 339 4.8 9.7 0.00 0.00 0.00 85 1012.5
20260503080832 12 3 0.0 6.4 0.00 0.00 0.00 85 1012.1
20260503080328 12 264 1.6 3.2 0.00 0.00 0.00 85 1012.5
20260503072759 12 194 0.0 4.8 0.00 0.00 0.00 85 1012.3
20260503072256 12 140 0.0 4.8 0.00 0.00 0.00 85 1012.4
20260503071752 12 121 0.0 3.2 0.00 0.00 0.00 85 1012.3
20260503071249 12 305 4.8 4.8 0.00 0.00 0.00 85 1012.3
20260503070745 12 300 0.0 4.8 0.00 0.00 0.00 85 1012.3
20260503070244 12 292 4.8 12.9 0.00 0.00 0.00 85 1012.3
20260503060214 12 355 9.7 11.3 0.00 0.00 0.00 84 1012.5
20260503054701 12 200 3.2 11.3 0.00 0.00 0.00 84 1012.5
20260503054159 12 23 1.6 11.3 0.00 0.00 0.00 84 1012.7
20260503053656 12 280 3.2 6.4 0.00 0.00 0.00 83 1012.7
20260503053155 12 16 6.4 8.0 0.00 0.00 0.00 83 1012.9
20260503052651 12 228 3.2 6.4 0.00 0.00 0.00 83 1013.0
20260503052147 12 226 3.2 12.9 0.00 0.00 0.00 83 1012.8
20260503051642 12 269 0.0 9.7 0.00 0.00 0.00 83 1012.8
20260503051141 12 260 9.7 14.5 0.00 0.00 0.00 83 1012.9
20260503050637 12 283 3.2 12.9 0.00 0.00 0.00 83 1013.0
20260503050134 12 269 8.0 17.7 0.00 0.00 0.00 83 1012.9
20260503045631 12 181 4.8 4.8 0.00 0.00 0.00 83 1012.9
20260503045128 12 16 1.6 8.0 0.00 0.00 0.00 83 1012.8
20260503044625 12 220 3.2 17.7 0.00 0.00 0.00 83 1012.9
20260503044122 12 8 4.8 6.4 0.00 0.00 0.00 83 1012.8
20260503043619 12 185 3.2 6.4 0.00 0.00 0.00 83 1012.8
20260503043116 12 170 3.2 11.3 0.00 0.00 0.00 84 1012.6
20260503042612 12 335 3.2 14.5 0.00 0.00 0.00 84 1012.8
20260503042108 12 248 3.2 14.5 0.00 0.00 0.00 83 1012.7
20260503041605 12 285 8.0 8.0 0.00 0.00 0.00 83 1012.8
20260503041103 12 226 4.8 19.3 0.00 0.00 0.00 82 1012.6
20260503040600 12 180 3.2 16.1 0.00 0.00 0.00 83 1012.3
20260503040057 12 219 6.4 6.4 0.00 0.00 0.00 83 1012.6
20260503035554 12 252 6.4 8.0 0.00 0.00 0.00 83 1012.4
20260503035052 12 254 4.8 12.9 0.00 0.00 0.00 83 1012.5
20260503034548 12 2 6.4 8.0 0.00 0.00 0.00 83 1012.6
20260503034046 12 110 0.0 8.0 0.00 0.00 0.00 83 1012.6
20260503033543 12 354 4.8 9.7 0.00 0.00 0.00 84 1012.5
20260503033041 12 317 0.0 11.3 0.00 0.00 0.00 84 1012.3
20260503032539 12 351 6.4 9.7 0.00 0.00 0.00 83 1012.3
20260503032037 12 213 0.0 6.4 0.00 0.00 0.00 83 1012.3
20260503031534 12 163 3.2 12.9 0.00 0.00 0.00 83 1012.1
20260503031031 12 250 9.7 16.1 0.00 0.00 0.00 84 1011.9
20260503030527 12 266 9.7 16.1 0.00 0.00 0.00 84 1012.0
20260503030025 12 316 11.3 14.5 0.00 0.00 0.00 84 1011.8
20260503025521 12 203 4.8 11.3 0.00 0.00 0.00 83 1011.8
20260503025019 12 358 4.8 4.8 0.00 0.00 0.00 83 1011.9
20260503024515 12 196 1.6 11.3 0.00 0.00 0.00 83 1011.7
20260503024012 12 240 0.0 6.4 0.00 0.00 0.00 82 1011.7
20260503023509 12 289 8.0 8.0 0.00 0.00 0.00 83 1011.6
20260503023006 12 167 4.8 9.7 0.00 0.00 0.00 83 1011.8
20260503022502 12 223 9.7 17.7 0.00 0.00 0.00 82 1011.7
20260503021957 12 214 9.7 12.9 0.00 0.00 0.00 82 1011.8
20260503021454 12 288 4.8 4.8 0.00 0.00 0.00 82 1011.4
20260503020951 12 279 6.4 12.9 0.00 0.00 0.00 82 1012.0
20260503020448 12 218 9.7 17.7 0.00 0.00 0.00 81 1011.8
20260503015945 12 1 3.2 6.4 0.00 0.00 0.00 81 1011.7
20260503015442 12 230 12.9 17.7 0.00 0.00 0.00 80 1011.9
20260503014938 12 300 12.9 14.5 0.00 0.00 0.00 80 1012.0
20260503014435 13 249 9.7 14.5 0.00 0.00 0.00 79 1012.0
20260503013933 13 92 3.2 17.7 0.00 0.00 0.00 79 1012.0
20260503013430 13 306 9.7 16.1 0.00 0.00 0.00 79 1012.1
20260503012927 13 335 6.4 14.5 0.00 0.00 0.00 79 1011.8
20260503012426 13 346 6.4 12.9 0.00 0.00 0.00 79 1012.1
20260503011921 13 308 8.0 16.1 0.00 0.00 0.00 78 1012.3
20260503011418 13 66 0.0 12.9 0.00 0.00 0.00 78 1012.1
20260503010915 13 293 8.0 14.5 0.00 0.00 0.00 77 1012.2
20260503010412 13 320 8.0 14.5 0.00 0.00 0.00 76 1012.3
20260503005909 13 71 0.0 8.0 0.00 0.00 0.00 76 1012.0
20260503005406 13 224 3.2 24.1 0.00 0.00 0.00 75 1012.4
20260503004902 13 264 3.2 9.7 0.00 0.00 0.00 77 1012.2
20260503004359 13 322 0.0 4.8 0.00 0.00 0.00 77 1012.1
20260503003857 13 332 12.9 16.1 0.00 0.00 0.00 77 1012.3
20260503003354 13 231 9.7 12.9 0.00 0.00 0.00 77 1012.4
20260503002850 13 189 1.6 17.7 0.00 0.00 0.00 77 1012.4
20260503002348 13 216 1.6 6.4 0.00 0.00 0.00 77 1012.3
20260503001844 13 315 9.7 14.5 0.00 0.00 0.00 77 1012.3
20260503001341 13 349 14.5 16.1 0.00 0.00 0.00 77 1012.4
20260503000839 13 264 12.9 19.3 0.00 0.00 0.00 76 1012.5
20260503000336 13 357 3.2 6.4 0.00 0.00 0.00 76 1012.3
20260502235833 13 233 1.6 4.8 0.00 0.00 0.00 77 1012.5
20260502235330 13 236 3.2 9.7 0.00 0.00 0.00 77 1012.6
20260502234827 13 239 3.2 14.5 0.00 0.00 0.00 78 1012.4
20260502234323 13 232 4.8 22.5 0.00 0.00 0.00 77 1012.5
20260502233820 13 9 4.8 8.0 0.00 0.00 0.00 76 1012.5
20260502233316 14 333 6.4 14.5 0.00 0.00 0.00 76 1012.4
20260502232813 14 211 17.7 24.1 0.00 0.00 0.00 74 1012.5
20260502232309 14 92 3.2 11.3 0.00 0.00 0.00 75 1012.8
20260502231806 15 359 3.2 11.3 0.00 0.00 0.00 73 1012.7
20260502231304 14 48 3.2 17.7 0.00 0.00 0.00 74 1012.6
20260502230802 15 347 14.5 19.3 0.00 0.00 0.00 73 1012.9
20260502230300 15 53 0.0 8.0 0.00 0.00 0.00 75 1012.9
20260502225756 14 353 8.0 12.9 0.00 0.00 0.00 74 1013.1
20260502225253 14 314 14.5 17.7 0.00 0.00 0.00 75 1013.2
20260502224749 14 315 12.9 17.7 0.00 0.00 0.00 74 1013.2
20260502224246 13 153 6.4 9.7 0.00 0.00 0.00 75 1013.5
20260502223743 14 264 6.4 16.1 0.00 0.00 0.00 75 1013.2
20260502223241 14 10 8.0 11.3 0.00 0.00 0.00 76 1013.4
20260502222739 13 173 6.4 16.1 0.00 0.00 0.00 78 1013.5
20260502222236 13 308 3.2 16.1 0.00 0.00 0.00 78 1013.6
20260502221731 13 187 1.6 12.9 0.00 0.00 0.00 78 1013.7
20260502221228 13 314 4.8 6.4 0.00 0.00 0.00 77 1013.8
20260502220725 13 227 6.4 11.3 0.00 0.00 0.00 77 1013.8
20260502220221 14 247 12.9 22.5 0.00 0.00 0.00 75 1013.8
20260502215718 14 229 11.3 14.5 0.00 0.00 0.00 75 1014.0
20260502215215 14 221 9.7 12.9 0.00 0.00 0.00 74 1013.9
20260502214713 14 247 11.3 14.5 0.00 0.00 0.00 75 1013.8
20260502214209 15 216 8.0 20.9 0.00 0.00 0.00 74 1013.9
20260502213706 15 238 9.7 17.7 0.00 0.00 0.00 71 1013.8